Weather History for KM30 - April, 2013

Change the Weather History Date:

Friday, April 19, 2013

  Actual Average (KPAH) Record (KPAH)
Temperature  
Mean Temperature 44 °F 59 °F  
Max Temperature 50 °F 71 °F 88 °F (1971)
Min Temperature 38 °F 48 °F 29 °F (1953)
Degree Days  
Heating Degree Days 21 7  
Month to date heating degree days 183  
Since 1 July heating degree days 4002  
Cooling Degree Days 0 1  
Month to date cooling degree days 19  
Year to date cooling degree days 26  
Moisture  
Dew Point 33 °F    
Average Humidity 64    
Maximum Humidity 97    
Minimum Humidity 46    
Precipitation  
Precipitation 0.00 in 0.18 in 2.38 in (1973)
Month to date precipitation 2.87  
Year to date precipitation 14.39  
Snow  
Snow 0.00 in 0.00 in T in (2011)
Month to date snowfall 0.0  
Since 1 July snowfall 9.1  
Snow Depth -    
Sea Level Pressure  
Sea Level Pressure 29.94 in    
Wind  
Wind Speed 11 mph (West)    
Max Wind Speed 17 mph    
Max Gust Speed 23 mph    
Visibility 10 miles    
Events      
T = Trace of Precipitation, MM = Missing Value Source: NWS Daily Summary

Daily Weather History Graph

Daily Weather History Graph

Search for Another Location

Airport or City:

Trip Planner

Search our weather history database for the weather conditions in past years. The results will help you decide how hot, cold, wet, or windy it might be!

Date:

Astronomy

Apr. 19, 2013 Rise Set
Actual Time 6:14 AM CDT 7:33 PM CDT
Civil Twilight 5:47 AM CDT 8:01 PM CDT
Nautical Twilight 5:15 AM CDT 8:33 PM CDT
Astronomical Twilight 4:41 AM CDT 9:07 PM CDT
Moon 1:26 PM CDT (4/19) 2:21 AM CDT (4/19)
Length of Visible Light 14h 13m
Length of Day
13h 19m
First Quarter, 62% of the Moon is Illuminated
Apr 19
First Quarter
Apr 25
Full
May 2
Last Quarter
May 9
New
May 17
First Quarter

Hourly Weather History & Observations

Time (CDT) Temp. Windchill Dew Point Humidity Pressure Visibility Wind Dir Wind Speed Gust Speed Precip Events Conditions
12:15 AM 45.0 °F 39.7 °F 42.3 °F 90% 29.75 in 10.0 mi WNW 10.4 mph 21.9 mph N/A   Overcast
12:35 AM 45.0 °F 38.9 °F 41.7 °F 88% 29.76 in 10.0 mi WNW 12.7 mph 19.6 mph N/A   Overcast
12:55 AM 44.8 °F 39.0 °F 41.0 °F 87% 29.76 in 10.0 mi WNW 11.5 mph 23.0 mph N/A   Overcast
1:15 AM 44.6 °F 39.2 °F 40.8 °F 87% 29.76 in 10.0 mi WNW 10.4 mph 16.1 mph N/A   Overcast
1:35 AM 44.2 °F 37.3 °F 38.3 °F 80% 29.78 in 10.0 mi West 15.0 mph 18.4 mph N/A   Overcast
1:55 AM 44.1 °F 37.1 °F 36.9 °F 76% 29.78 in 10.0 mi West 15.0 mph 20.7 mph N/A   Overcast
2:15 AM 43.7 °F 37.7 °F 36.1 °F 75% 29.78 in 10.0 mi WNW 11.5 mph 17.3 mph N/A   Overcast
2:55 AM 43.2 °F 35.3 °F 34.5 °F 72% 29.80 in 10.0 mi WNW 17.3 mph 23.0 mph N/A   Overcast
3:15 AM 43.0 °F 35.7 °F 33.6 °F 70% 29.81 in 10.0 mi West 15.0 mph 20.7 mph N/A   Overcast
3:35 AM 42.8 °F 37.5 °F 32.9 °F 68% 29.81 in 10.0 mi WNW 9.2 mph 18.4 mph N/A   Overcast
3:55 AM 42.8 °F 38.0 °F 33.3 °F 69% 29.82 in 10.0 mi WNW 8.1 mph - N/A   Overcast
4:15 AM 42.8 °F 35.8 °F 32.4 °F 67% 29.83 in 10.0 mi WNW 13.8 mph 21.9 mph N/A   Overcast
4:35 AM 42.4 °F 35.7 °F 31.6 °F 66% 29.83 in 10.0 mi WNW 12.7 mph 19.6 mph N/A   Overcast
4:55 AM 42.3 °F 34.8 °F 31.8 °F 67% 29.83 in 10.0 mi WNW 15.0 mph 20.7 mph N/A   Overcast
5:15 AM 42.3 °F 35.1 °F 31.3 °F 65% 29.84 in 10.0 mi WNW 13.8 mph 23.0 mph N/A   Overcast
5:35 AM 42.4 °F 36.5 °F 30.9 °F 64% 29.84 in 10.0 mi WNW 10.4 mph - N/A   Overcast
5:55 AM 42.4 °F 35.7 °F 31.3 °F 65% 29.85 in 10.0 mi West 12.7 mph 17.3 mph N/A   Overcast
6:15 AM 42.8 °F 38.0 °F 32.2 °F 66% 29.86 in 10.0 mi WSW 8.1 mph - N/A   Overcast
6:35 AM 42.8 °F 37.0 °F 32.2 °F 66% 29.87 in 10.0 mi West 10.4 mph - N/A   Overcast
6:55 AM 43.0 °F 36.8 °F 30.9 °F 62% 29.88 in 10.0 mi WSW 11.5 mph 20.7 mph N/A   Overcast
7:15 AM 43.2 °F 37.4 °F 32.0 °F 65% 29.90 in 10.0 mi West 10.4 mph - N/A   Overcast
7:35 AM 43.2 °F 37.9 °F 32.2 °F 65% 29.91 in 10.0 mi West 9.2 mph - N/A   Overcast
7:55 AM 43.2 °F 37.0 °F 31.8 °F 64% 29.91 in 10.0 mi West 11.5 mph 19.6 mph N/A   Overcast
8:15 AM 43.0 °F 36.4 °F 30.0 °F 60% 29.92 in 10.0 mi West 12.7 mph 21.9 mph N/A   Overcast
8:55 AM 42.8 °F 39.3 °F 30.4 °F 62% 29.92 in 10.0 mi West 5.8 mph - N/A   Overcast
9:15 AM 43.0 °F 37.2 °F 30.9 °F 62% 29.92 in 10.0 mi West 10.4 mph 18.4 mph N/A   Overcast
9:35 AM 43.7 °F 36.9 °F 30.6 °F 60% 29.92 in 10.0 mi West 13.8 mph 20.7 mph N/A   Overcast
9:55 AM 43.7 °F 36.9 °F 30.2 °F 59% 29.93 in 10.0 mi WSW 13.8 mph 20.7 mph N/A   Overcast
10:15 AM 43.3 °F 37.2 °F 29.8 °F 59% 29.93 in 10.0 mi West 11.5 mph 17.3 mph N/A   Overcast
10:35 AM 43.3 °F 37.2 °F 30.4 °F 60% 29.94 in 10.0 mi West 11.5 mph - N/A   Overcast
10:55 AM 43.2 °F 37.9 °F 31.5 °F 63% 29.95 in 10.0 mi West 9.2 mph 18.4 mph N/A   Overcast
11:15 AM 43.3 °F 36.8 °F 30.7 °F 61% 29.96 in 10.0 mi WSW 12.7 mph 18.4 mph N/A   Overcast
11:35 AM 43.9 °F 37.2 °F 30.2 °F 59% 29.97 in 10.0 mi West 13.8 mph 20.7 mph N/A   Overcast
11:55 AM 44.6 °F 39.2 °F 30.2 °F 57% 29.96 in 10.0 mi West 10.4 mph 20.7 mph N/A   Overcast
12:15 PM 44.6 °F 38.4 °F 30.0 °F 57% 29.97 in 10.0 mi WSW 12.7 mph 21.9 mph N/A   Overcast
12:35 PM 44.6 °F 38.4 °F 30.4 °F 57% 29.97 in 10.0 mi West 12.7 mph 19.6 mph N/A   Overcast
12:55 PM 44.6 °F 38.1 °F 30.4 °F 57% 29.96 in 10.0 mi WSW 13.8 mph 21.9 mph N/A   Overcast
1:15 PM 45.5 °F 38.6 °F 30.4 °F 56% 29.96 in 10.0 mi WSW 16.1 mph 20.7 mph N/A   Overcast
1:35 PM 45.7 °F 40.2 °F 31.8 °F 58% 29.95 in 10.0 mi SW 11.5 mph 20.7 mph N/A   Overcast
1:55 PM 46.2 °F 40.8 °F 32.2 °F 58% 29.95 in 10.0 mi WSW 11.5 mph 17.3 mph N/A   Overcast
2:15 PM 46.2 °F 41.2 °F 31.5 °F 56% 29.96 in 10.0 mi WSW 10.4 mph 17.3 mph N/A   Overcast
2:35 PM 46.9 °F - 31.3 °F 55% 29.96 in 10.0 mi WSW 13.8 mph 20.7 mph N/A   Overcast
2:55 PM 47.3 °F - 31.5 °F 54% 29.97 in 10.0 mi WSW 15.0 mph 21.9 mph N/A   Overcast
3:15 PM 46.9 °F - 31.3 °F 55% 29.97 in 10.0 mi West 13.8 mph 21.9 mph N/A   Overcast
3:35 PM 49.3 °F - 32.4 °F 52% 29.97 in 10.0 mi West 17.3 mph 20.7 mph N/A   Overcast
3:55 PM 49.6 °F - 32.2 °F 51% 29.97 in 10.0 mi WSW 13.8 mph 20.7 mph N/A   Mostly Cloudy
4:15 PM 48.4 °F - 30.9 °F 51% 29.97 in 10.0 mi WSW 11.5 mph 16.1 mph N/A   Scattered Clouds
4:35 PM 49.1 °F - 29.3 °F 46% 29.98 in 10.0 mi WSW 13.8 mph 21.9 mph N/A   Scattered Clouds
4:55 PM 50.5 °F - 31.3 °F 48% 29.99 in 10.0 mi WSW 13.8 mph 17.3 mph N/A   Mostly Cloudy
5:15 PM 50.0 °F - 31.8 °F 50% 29.99 in 10.0 mi WSW 11.5 mph - N/A   Mostly Cloudy
5:35 PM 49.6 °F - 32.2 °F 51% 29.99 in 10.0 mi SW 9.2 mph 17.3 mph N/A   Mostly Cloudy
5:55 PM 49.5 °F - 32.2 °F 51% 29.99 in 10.0 mi SW 5.8 mph - N/A   Mostly Cloudy
6:15 PM 50.4 °F - 31.1 °F 48% 29.99 in 10.0 mi WSW 9.2 mph - N/A   Scattered Clouds
6:35 PM 50.0 °F - 32.2 °F 50% 29.99 in 10.0 mi SSW 9.2 mph - N/A   Scattered Clouds
6:55 PM 49.5 °F - 32.4 °F 52% 29.99 in 10.0 mi SW 9.2 mph - N/A   Clear
7:15 PM 48.2 °F - 32.2 °F 54% 30.00 in 10.0 mi SSW 6.9 mph - N/A   Clear
7:35 PM 47.8 °F - 33.6 °F 58% 30.01 in 10.0 mi South 4.6 mph - N/A   Mostly Cloudy
7:55 PM 47.8 °F - 33.8 °F 58% 30.02 in 10.0 mi South 3.5 mph - N/A   Overcast
8:15 PM 47.8 °F - 34.0 °F 59% 30.03 in 10.0 mi South 4.6 mph - N/A   Overcast
8:35 PM 47.8 °F - 33.4 °F 57% 30.04 in 10.0 mi Calm Calm - N/A   Overcast
8:55 PM 46.9 °F - 33.3 °F 59% 30.05 in 10.0 mi South 4.6 mph - N/A   Mostly Cloudy
9:15 PM 46.2 °F - 33.8 °F 62% 30.05 in 10.0 mi Calm Calm - N/A   Scattered Clouds
9:35 PM 44.2 °F - 34.7 °F 69% 30.06 in 10.0 mi Calm Calm - N/A   Clear
9:55 PM 43.0 °F - 34.9 °F 73% 30.07 in 10.0 mi Calm Calm - N/A   Clear
10:15 PM 41.2 °F - 35.6 °F 81% 30.08 in 10.0 mi Calm Calm - N/A   Scattered Clouds
10:35 PM 40.5 °F - 36.0 °F 84% 30.08 in 10.0 mi Calm Calm - N/A   Clear
10:55 PM 40.1 °F - 36.5 °F 87% 30.08 in 10.0 mi Calm Calm - N/A   Clear
11:15 PM 39.2 °F - 37.0 °F 92% 30.08 in 10.0 mi Calm Calm - N/A   Clear
11:35 PM 38.1 °F - 37.4 °F 97% 30.09 in 10.0 mi Calm Calm - N/A   Clear
11:55 PM 38.1 °F - 37.4 °F 97% 30.10 in 10.0 mi Calm Calm - N/A   Clear